Regional Weather Roundup
Issued by NWS

Home | Current Version | Previous Version | Graphics & Text | Print | Product List | Glossary On
Versions: 1 2 3 4 5 6 7 8 9 10 11 12 13 14 15 16 17 18 19 20 21 22 23 24 25 26 27 28
000
ASUS45 KTFX 030410
RWRMT
MONTANA REGIONAL WEATHER ROUNDUP
NATIONAL WEATHER SERVICE GREAT FALLS MT
900 PM MST FRI DEC 02 2016

NOTE: "FAIR" INDICATES FEW OR NO CLOUDS BELOW 12000 FEET WITH NO
SIGNIFICANT WEATHER AND/OR OBSTRUCTIONS TO VISIBILITY.

MTZ001>007-043-030500-
WEST OF THE DIVIDE

CITY           SKY/WX    TMP DP  RH WIND       PRES   REMARKS
KALISPELL      CLOUDY    32  27  81 S12       30.05F WCI  23
MISSOULA       CLOUDY    32  25  75 NE3       30.13F
BUTTE          LGT SNOW  24  20  84 NE7       30.06F FOG     WCI  16
MULLAN PASS    LGT SNOW  22  20  92 VRB6      29.96F FOG     WCI  14
ANACONDA         N/A     25  19  80 N8        30.07F WCI  16
DEER LODGE       N/A     27  25  93 CALM      30.10F
EUREKA           N/A     36  27  69 SE14      30.01S WCI  27
HAMILTON         N/A     34  18  51 SE5       30.13S
LIBBY            N/A     34  28  80 CALM      30.02S
PLAINS           N/A     37  24  60 CALM      30.08F
RONAN            N/A     31  27  85 CALM      30.11F
$$

MTZ008-052>055-030500-
SOUTHWEST MONTANA

CITY           SKY/WX    TMP DP  RH WIND       PRES   REMARKS
BOZEMAN        CLOUDY    22  16  78 CALM      30.09R
DILLON         CLOUDY    28  11  48 SW13      30.08R WCI  17
W YELLOWSTONE  CLOUDY    16  14  93 SW12      30.14S WCI   3
ENNIS          CLOUDY    23  14  68 S20G26    30.16R WCI   8
THREE FORKS      N/A     32  32 100 CALM      30.06R
TWIN BRIDGES     N/A     30  10  43 E8        30.07R WCI  22
$$

MTZ009-010-012-014-046-048-049-054-030500-
EAST SLOPES AND CENTRAL MONTANA

CITY           SKY/WX    TMP DP  RH WIND       PRES   REMARKS
CUT BANK       MOCLDY    33  18  53 W35G46    29.80F WCI  18
GREAT FALLS    CLOUDY    31  23  72 SW20      29.91F WCI  19
MALMSTROM AFB  CLOUDY    32  26  78 SW20G30   29.92F WCI  20
HELENA         CLOUDY    31  22  69 SE7       30.05F WCI  24
AUGUSTA        FLURRIES  33  17  50 W31G40    29.88F WCI  19
BOWMANS CRNR   CLOUDY    29  19  66 SW20G25   29.91F WCI  16
CHOTEAU          N/A     37  19  48 SW12G22   29.87F WCI  30
CONRAD           N/A     32  31  96 S6        29.87F WCI  26
FAIRFIELD      MOCLDY    34  18  52 SW21G30   29.87F WCI  22
POWER          MOCLDY    31  21  67 SW16      29.88F WCI  20
RAYNESFORD     FLURRIES  33  21  62 SW18G37   29.93F WCI  21
ULM            CLOUDY    33  24  70 W13       29.94F WCI  23
$$

MTZ011-013-016-021-045-047-050-051-030500-
NORTH CENTRAL MONTANA

CITY           SKY/WX    TMP DP  RH WIND       PRES   REMARKS
HAVRE          CLOUDY    33  22  63 SW23      29.87F WCI  21
LEWISTOWN      CLOUDY    27  16  63 SW15      29.92F WCI  15
N BAR RANCH      N/A     21  10  63 NW3       29.94F
CHINOOK          N/A     36  19  51 SW13G20   29.87F WCI  27
DENTON         MOCLDY    24  16  74 SW10      29.89F WCI  13
GEYSER         MOCLDY    30  19  63 W18G24    29.90F WCI  18
GRASS RANGE      N/A     24  16  71 SW10      29.90F WCI  13
JUDITH GAP     MOCLDY    25  15  65 SW14      29.93F WCI  13
ROY              N/A     27  16  63 MISG      29.91F
STANFORD       MOCLDY    31  19  61 W12       29.90F WCI  21
WINIFRED       MOCLDY    26  19  74 MISG      29.90F
$$

MTZ017>020-022>027-061-062-030500-
NORTHEAST MONTANA

CITY           SKY/WX    TMP DP  RH WIND       PRES   REMARKS
GLASGOW        CLEAR     24  21  88 SE10      29.95F WCI  14
JORDAN           N/A     28  20  71 S13       29.96F WCI  17
SIDNEY         CLEAR     20  18  92 S3        30.06F
WOLF POINT     CLEAR     25  20  81 W5        30.00F
PLENTYWOOD       N/A     21  21 100 SE5       29.99F
POPLAR           N/A     28  23  80 CALM      30.01F
SCOBEY           N/A     21  14  74 S2        29.94F
$$

MTZ028>42-056>058-030500-
SOUTHCENTRAL AND SOUTHEAST MONTANA

CITY           SKY/WX    TMP DP  RH WIND       PRES   REMARKS
BAKER          CLEAR     24  20  84 S13       30.07F WCI  12
BILLINGS       CLEAR     33  18  53 W14       30.00S WCI  23
LIVINGSTON     CLOUDY    31  12  45 W24G39    30.01R WCI  17
MILES CITY     CLEAR     26  22  84 S13       30.03F WCI  15
BIG TIMBER     CLEAR     30  12  47 W25       30.00R WCI  16
EKALAKA          N/A     29  19  66 SE9       30.03F WCI  21
FORSYTH          N/A     34  21  60 S8        30.01F WCI  27
HARLOWTON      MOCLDY    28  14  55 W21       29.96F WCI  15
LAUREL           N/A     32  12  43 SW12      29.98F WCI  23
ROUNDUP          N/A     26   9  48 S5        29.91R
$$

REGIONAL REPORTS...DAKOTAS

CITY           SKY/WX    TMP DP  RH WIND       PRES   REMARKS
WILLISTON      CLEAR     24  22  91 S3        30.05F
MINOT          CLOUDY    29  26  89 S9        30.11F WCI  20
DICKINSON      CLEAR     18  16  92 S10       30.07F WCI   6
BEACH            N/A     19  19 100 S8        30.09S WCI   9
CROSBY           N/A     28  28 100 S14       30.04F WCI  17
TIOGA            N/A     25  25 100 S9        30.06F WCI  15
WATFORD CITY     N/A     19  19 100 SE5       30.07F
BISMARCK       CLOUDY    20  18  92 SE5       30.19F
GRAND FORKS    CLOUDY    31  20  63 SW6       30.25S WCI  25
FARGO          CLOUDY    28  19  69 SW10      30.29S WCI  19
BUFFALO SD       N/A     24  22  91 S9        30.04F WCI  14
RAPID CITY     CLEAR     24  19  81 S5        30.16F
$$

REGIONAL REPORTS...WYOMING/IDAHO/WASHINGTON

CITY           SKY/WX    TMP DP  RH WIND       PRES   REMARKS
GILLETTE       CLEAR     26  20  77 S17       30.05F WCI  13
SHERIDAN       CLEAR     19  11  70 SW8       30.00F WCI   9
BUFFALO WY     CLEAR     24  11  57 CALM      29.99F
CODY           CLEAR     30   8  39 W17G32    30.01F WCI  18
YELLOWSTONE LA   N/A     11   8  88 W5        30.11R
IDAHO FALLS    CLOUDY    25  20  81 S10       30.24F WCI  15
SALMON         CLOUDY    28  21  74 E3        30.14F
BOISE          CLOUDY    32  25  75 SE8       30.30S WCI  25
SPOKANE        CLOUDY    34  32  92 SE14      30.04F WCI  25
$$

REGIONAL REPORTS...ALBERTA

CITY           SKY/WX    TMP DP  RH WIND       PRES   REMARKS
EDMONTON       CLOUDY    27  23  86 SE5       29.66F
CALGARY        MOCLDY    39  19  45 W18G25    29.65S WCI  30
LETHBRIDGE     MOCLDY    37  21  52 W29G40    29.73F WCI  25
MEDICINE HAT   CLOUDY    37  25  60 S17G25    29.72F WCI  28
WATERTON GATE    N/A     32  21  64 SW36G52     N/A  WCI  16
CARDSTON         N/A     36  19  51 W15G25      N/A  WCI  26
MILK RIVER       N/A     36  21  55 W20G25      N/A  WCI  25
ONEFOUR          N/A     34  25  69 SW8         N/A  WCI  27
$$

REGIONAL REPORTS...SASKATCHEWAN

CITY           SKY/WX    TMP DP  RH WIND       PRES   REMARKS
SWIFT CURRENT  PTCLDY    25  21  86 S17       29.78F WCI  11
REGINA         CLOUDY    27  25  93 SE13      29.96F WCI  16
SASKATOON      CLOUDY    27  19  74 S16       29.90F WCI  14
CYPRESS HILLS    N/A     23  19  86 SW7         N/A  WCI  15
VAL MARIE        N/A     18  16  93 S8          N/A  WCI   7
ROCKGLEN         N/A     21  19  93 S8          N/A  WCI  12
ASSINIBOIA       N/A     28  27  93 S10         N/A  WCI  19
$$




USA.gov is the U.S. government's official web portal to all federal, state and local government web resources and services.